Find Starlink 35738

NORAD ID: 67116 Int'l Des: 2025-299 Owner: SPXS Country: US Constellation: starlink operational
LEOCIRCULAR

Aktuelle Ansicht

3D-Globus wird geladen...

Über Starlink 35738

Beschreibung wird geladen...

Nächste Überflüge

Passes for default location (London). Set your location on the main map for personalized predictions.

Höhenverlauf

Loading altitude history...

Zweizeiliger Elementsatz

1 67116U 25299Q 26146.19322101 .00021668 00000-0 79411-3 0 9994
2 67116 43.0010 90.9272 0001620 268.0391 92.0275 15.27600598 24978
Epoch: 26. Mai 2026 • Age: 15 hours

Aktueller Status

Höhe 482.5 km
Geschwindigkeit 7.63 km/s
Subsatellitenpunkt 2.86°N, 87.09°E
Startdatum 15. Dez. 2025
Alter 0.4 years
Typ internet

Technische Details

Klassifizierung Payload
Masse 575.00 kg
Trockenmasse 530.00 kg
Gesamtmasse 575.00 kg
Länge 0.30 m
Durchmesser 4.10 m
Spannweite 29.00 m
Form Box + pan
Hersteller SPXS
Bus-Typ Starlink V2MO
Phasenstatus In Orbit
Besitzer/Staat SPXS/US

Most Searched